sat.trackr.live / text

‹ back to catalog

STARLINK-37551

NORAD 68907 · 2026-097N

PAYLOAD ACTIVE UNKNOWN

§ Identity

Operator
Country
US
Launch date
2026-04-30
Launch site
AFWTR
Launch vehicle
Mass (kg)
RCS (m²)

Purposes: comms

External: N2YO · Heavens-Above · Gunter

§ Orbital elements

Epoch: 2026-05-25T02:00:31.857984Z

Period
92.95 min
Inclination
97.2839°
Eccentricity
0.0001862
Mean motion
15.49251097 rev/d
Perigee alt
417.7 km
Apogee alt
420.2 km
Semi-major
6,797.1 km
B*
6.9299e-4
RAAN
340.7491°
Arg perigee
85.0202°
Mean anomaly
275.1261°
Rev number
393

§ Raw data

STARLINK-375511 68907U 26097N   26145.08370206  .00037864  00000+0  69299-3 0  99932 68907  97.2839 340.7491 0001862  85.0202 275.1261 15.49251097  3934

JSON: /api/v1/satellites/68907 · /tle

For live sub-satellite position, see the globe view (requires WebGL).

§ Visibility from observer

Set your observer location to see the next 7 days of passes ≥ 10°. The values pass through the URL so the page stays shareable.

No JS? Fill the form by hand. The geolocation button needs JavaScript.